Home > Weather > Eilat > Past weeks

Flag for Israel Past Weather in Eilat, Israel — Yesterday and Last 2 Weeks

Now
100 °F

Passing clouds.


Feels Like: 98 °F
Forecast: 82 / 104 °F
Wind: 13 mph from Northeast

Location: Eilat

Current Time: Jun 30, 2016 at 1:38:32 PM

Latest Report: Jun 30, 2016 at 12:50 PM


Visibility: N/A

Pressure: 29.80 "Hg

Humidity: 20%

Dew Point: 52 °F

Location of EilatLocation

Past Weather in Eilat — Graph

°F

Eilat Temperature Yesterday

Maximum temperature yesterday: 104 °F (at 3:50 PM)
Minimum temperature yesterday: 82 °F (at 5:50 AM)
Average temperature yesterday: 95 °F

High & Low Weather Summary for the Past Weeks

 TemperatureHumidityPressure
High111 °F (Jun 15, 4:50 PM)100% (Jun 15, 1:50 PM)29.86 "Hg (Jun 15, 1:50 PM)
Low75 °F (Jun 16, 5:50 AM)8% (Jun 21, 4:50 PM)29.53 "Hg (Jun 24, 4:50 PM)
Average97 °F25%29.69 "Hg
* Reported Jun 15 11:50 AM — Jun 30 11:50 AM, Eilat, Weather by CustomWeather, © 2016

Note: Actual official high and low records may vary slightly from our data, if they occured in-between our weather recording intervals... More about our weather records

Advertising

Eilat Weather History for the Previous 24 Hours

Scroll right to see more
 ConditionsComfort  
Time TempWeatherWind HumidityBarometerVisibility
11:50 AM
Thu, Jun 30
99 °FSunny.13 mph19%29.80 "Hg10 mi
10:50 AM95 °FSunny.13 mph28%29.80 "Hg10 mi
9:50 AM91 °FSunny.14 mph32%29.83 "Hg10 mi
8:50 AM90 °FSunny.13 mph31%29.83 "Hg10 mi
7:50 AM86 °FSunny.10 mph35%29.83 "Hg10 mi
6:50 AM84 °FSunny.7 mph40%29.80 "Hg10 mi
5:50 AM82 °FClear.6 mph40%29.80 "Hg10 mi
9:50 PM
Wed, Jun 29
95 °FClear.15 mph30%29.74 "Hg10 mi
8:50 PM99 °FClear.12 mph24%29.68 "Hg10 mi
7:50 PM102 °FSunny.10 mph18%29.68 "Hg10 mi
6:50 PM104 °FSunny.12 mph17%29.65 "Hg10 mi
5:50 PM104 °FSunny.14 mph20%29.65 "Hg10 mi
4:50 PM104 °FSunny.13 mph21%29.65 "Hg10 mi
3:50 PM104 °FSunny.14 mph23%29.65 "Hg10 mi
2:50 PM102 °FSunny.13 mph24%29.68 "Hg10 mi
1:50 PM100 °FSunny.12 mph27%29.68 "Hg10 mi
Weather by CustomWeather, © 2016

See weather overviewHow to use our weather pages